DMSP 5D-2 F13 DEB, 42300

Orbit data source: Space-Track

DMSP 5D-2 F13 DEB, 42300 is space debris in SSO originally from a launch on Fri, 24 Mar 1995 UTC launched from the Air Force Western Test Range (AFWTR). Debris objects in space refer to the collection of defunct objects orbiting the Earth. Examples of debris include non-operational satellites, rocket bodies, and fragments generated from explosions, collisions, or faulty payload assembly.

Loading next visibility...
DMSP 5D-2 F13 DEB details
Identifier
42300, 1995-015HS
Orbit
SSO
Last TLE update1 day ago
Origin
Flag of USUSAF SMC (US)
ManufacturerUnknown
MissionSpacecraft
Bus & MotorUnknown
MassUnknown
Launch date (UTC)
1995-03-24 (30 years ago)
Launch vehicleUnknown
Launch site
Air Force Western Test Range (AFWTR)
Object type
Payload
Rocket body
Debris
Shape & HBRUnknown
Radar Cross SectionSmall (<0.1 m²)

Expand to show TLE details & history

TLE from 1 day ago
0 DMSP 5D-2 F13 DEB
1 42300U 95015HS  24360.03943782  .00012221  00000-0  40285-2 0  9999
2 42300  98.6288  29.1227 0027741 103.7585 256.6692 14.38025051423403
Epoch: 2024-12-25T00:56Z
Definitive object data (Epoch: 2024-12-25T00:56:47.427Z)
Latitude-0.00003°
Longitude-79.11382°
Altitude772.595 km
Speed7.465 km/s
True Right ascension01h 56m 29s
True Declination0° 00' 00"
Sunlit
Object was in daylight at TLE epoch
Visualization TLE readout
Latitude68.81224°
Longitude125.22127°
Altitude757.271 km
Speed7.492 km/s
Apparent Right ascension20h 13m 24s
Apparent Declination26° 27' 28"
Sunlit
Object is in daylight
Visualization observer readout
Local Sidereal Time10:12:15
Azimuth27.828° NE
Elevation-18.088°
Doppler factor1
Orbital elements
Apogee altitude781.97 km
Perigee altitude742.354 km
Semi-major axis7,140.299 km
Eccentricity0.0027741
Inclination98.6288°
RAAN29.1227°
Arg. of periapsis103.7585°
True anomaly256.36013°
Mean anomaly256.6692°
Eccentric anomaly256.51464°
Mean motion3.59723 °/min
BSTAR0.0040285
Orbital period100.08 mins
Loading maneuver chart data...

DMSP 5D-2 F13 DEB Visibility forecast

Observer location: undefined°, undefined

Span
Click to sort rows by Start time (UTC) header in descending order
Start Az.
Max El. time (UTC)
Max El. Az.
Max El.
End time (UTC)
End Az.
8 mins2024-12-26 14:16:00.570Z37.071° NE2024-12-26 14:20:00.570Z92.55° ESE25.87°2024-12-26 14:24:00.570Z153.255° SSE
7 mins2024-12-26 15:56:00.570Z343.405° N2024-12-26 15:59:00.570Z293.958° NW26.856°2024-12-26 16:03:00.570Z234.347° WSW
7 mins2024-12-27 01:31:00.570Z128.734° SE2024-12-27 01:34:00.570Z75.483° E32.035°2024-12-27 01:38:00.570Z6.488° NNE
6 mins2024-12-27 03:11:00.570Z229.841° WSW2024-12-27 03:13:00.570Z260.854° W21.082°2024-12-27 03:17:00.570Z315.912° NNW
|